Location: Amherst Heights
(40.8301°N, 81.5160°W)
Time: 01:18:14
(UTC+00:00)

Daily predictions for brighter satellites

Satellite Brightness Start Highest point End
(mag) Time Altitude Azimuth Time Altitude Azimuth Time Altitude Azimuth
IGS 5A 3.6 01:10:00 10° SSE 01:14:03 59° ENE 01:18:09 10° N
Cosmos 1544 3.0 01:11:34 10° N 01:15:07 86° W 01:18:37 10° S
Landsat 7 4.2 01:11:07 10° SE 01:15:37 46° ENE 01:20:08 10° N
Cosmos 2233 Rocket 4.2 01:11:00 10° S 01:17:20 84° W 01:23:41 10° N
Meteor 2-6 Rocket 4.2 01:12:31 10° S 01:17:55 89° W 01:23:26 10° N
Okean-O 3.0 01:14:09 10° S 01:18:32 66° WSW 01:22:58 10° NNW
CSL-04 Rocket 3.9 01:15:33 10° S 01:20:51 74° WSW 01:26:14 10° NNW
Aureole 1 Rocket 2.9 01:18:29 10° S 01:21:31 32° ESE 01:24:16 10° NE
Cosmos 2227 Rocket 2.3 01:20:37 10° NNW 01:26:18 68° ENE 01:31:55 10° SSE
Cosmos 1536 3.7 01:25:47 10° NNE 01:29:27 33° ENE 01:33:06 10° SE
Cosmos 1980 Rocket 2.7 01:27:09 10° S 01:32:19 39° ESE 01:37:33 10° NE
RESURS DK-1 3.8 01:30:24 10° SSE 01:33:17 19° ESE 01:36:10 10° ENE
ASTRO E2 4.4 01:31:38 10° SW 01:34:22 18° S 01:36:57 11° SE
SL-4 R/B 2.5 01:29:48 10° NW 01:34:23 63° NNE 01:38:30 11° ESE
ARGOS Delta rocket 4.4 01:31:55 10° NNE 01:37:17 51° E 01:42:29 10° S
Cosmos 1184 Rocket 3.4 01:35:41 10° SSE 01:38:22 30° E 01:41:05 10° NNE
H-2A R/B 1.9 01:35:26 10° NNE 01:39:32 87° ESE 01:43:39 10° SSW
Cosmos 2369 3.8 01:36:58 10° S 01:42:27 56° ESE 01:47:58 10° NNE
Cosmos 1328 Rocket 3.8 01:39:30 10° SSW 01:43:48 70° W 01:48:08 10° N
Cosmos 1486 Rocket 4.0 01:38:39 10° SSW 01:43:57 85° ESE 01:49:16 10° NNE
IRS-1A Rocket 4.4 01:38:56 10° SSE 01:44:29 63° ENE 01:50:11 10° N
Cosmos 1464 Rocket 4.1 01:40:19 10° SSE 01:46:21 56° E 01:52:21 10° NNE
Cosmos 1697 Rocket 3.0 01:45:19 10° SSW 01:50:57 72° WNW 01:56:39 10° NNE
Cosmos 405 3.0 01:49:43 10° NNW 01:53:07 73° W 01:56:31 10° S
Cosmos 389 Rocket 2.8 01:50:58 10° N 01:54:23 49° ENE 01:56:49 17° SSE
MOS 1 4.3 01:48:49 10° SSE 01:54:27 84° ENE 02:00:09 10° NNW
CZ-4B R/B 1.2 01:53:23 10° N 01:56:35 84° WNW 01:59:42 10° SSW
MetOp-B 4.4 01:56:39 15° SE 02:01:01 54° ENE 02:06:14 10° N
Cosmos 1515 3.8 01:58:16 10° SSW 02:02:01 76° W 02:05:48 10° N
ATLAS 2AS CENTAUR R/B 3.0 01:54:32 10° SSW 02:02:10 59° ESE 02:09:37 10° NE
Cosmos 2297 Rocket 3.3 01:57:40 10° NW 02:02:55 40° WSW 02:08:07 10° S
Nadezhda 4 Rocket 4.3 01:57:08 10° N 02:03:11 51° ENE 02:07:53 17° SSE
EXPRESS MD2 3.6 02:02:50 10° WNW 02:08:48 71° NNE 02:10:54 22° ESE
Helios 1A Rocket 4.0 02:07:25 19° ESE 02:09:23 29° ENE 02:12:51 10° N
Cosmos 1933 Rocket 3.5 02:06:50 10° N 02:11:18 76° E 02:14:37 18° SSE
Cosmos 1340 3.0 02:07:58 10° SSW 02:11:40 65° W 02:15:23 10° N
Cosmos 1503 Rocket 4.0 02:08:01 10° SSW 02:13:17 90° WNW 02:18:39 10° NNE
ERS-1 Rocket 4.1 02:12:29 18° ESE 02:15:12 30° ENE 02:19:32 10° N
SJ 16-02 1.2 02:16:05 10° S 02:20:24 70° ESE 02:24:46 10° NNE
SL-16 R/B 3.3 02:18:47 21° SE 02:20:33 25° ESE 02:25:04 10° NE
SPOT 1/Viking Rocket 3.8 02:22:07 14° S 02:26:31 67° WSW 02:31:40 10° NNW
Cosmos 1743 3.3 02:23:46 10° NNW 02:27:27 52° W 02:30:10 17° SSW
Timation 2 Rocket 4.1 02:20:55 10° NNW 02:27:34 80° ENE 02:32:04 23° SSE
NOSS 2-1 (E) 4.4 02:29:30 21° E 02:29:30 21° E 02:31:00 10° ENE
ATLAS 3B R/B 4.0 02:22:50 10° NNW 02:29:23 33° NE 02:35:07 14° E
BREEZE M DEB (TANK) 4.1 02:28:52 10° NW 02:32:58 66° NNE 02:47:28 12° ESE
Cosmos 1346 Rocket 3.7 02:36:32 29° ESE 02:36:57 30° E 02:40:29 10° NNE
Meteor 1-18 Rocket 4.3 02:34:06 22° SSE 02:37:46 59° E 02:43:19 10° NNE
OAO 3 Rocket 4.1 02:36:07 10° WSW 02:40:27 31° SSW 02:41:32 28° S
Cosmos 2278 3.6 02:35:22 10° SSW 02:41:01 89° ESE 02:46:44 10° NNE
Meteor 2-21 4.4 02:36:56 10° N 02:43:03 85° E 02:46:53 25° S
Resurs 01 Rocket 3.1 02:39:24 11° SSW 02:43:12 31° W 02:47:09 10° NNW
Ariane Rocket 3.8 02:40:49 15° S 02:44:43 47° W 02:49:38 10° NNW
Cosmos 2360 Rocket 3.7 02:45:49 18° E 02:45:49 18° E 02:49:06 10° ENE
SPOT 5 3.1 02:43:22 31° SSE 02:45:55 67° ENE 02:51:02 10° N
Terra 2.4 02:44:34 31° ESE 02:46:16 44° ENE 02:50:46 10° N
Cosmos 2292 Rocket 3.1 02:45:04 10° N 02:47:45 44° ENE 02:47:45 44° ENE
Cosmos 2082 4.1 02:43:48 10° NNW 02:49:17 56° WSW 02:52:31 24° S
Cosmos 2034 Rocket 4.3 02:43:18 10° SSW 02:49:32 67° W 02:55:52 10° N
Cosmos 921 Rocket 3.6 02:46:13 10° NNW 02:50:38 53° WSW 02:52:48 27° SSW
Cosmos 2263 Rocket 2.1 02:46:14 10° NNW 02:51:50 76° ENE 02:54:16 35° SE
ISS -2.5 02:49:00 10° NW 02:52:08 36° NNE 02:53:04 29° ENE
Cosmos 1378 2.9 02:52:06 51° S 02:52:56 80° E 02:56:36 10° N
CARTOSAT-1 4.3 02:54:34 25° SSW 02:56:45 48° W 03:00:57 10° NNW
Meteor 2-21 Rocket 4.4 02:50:52 10° N 02:57:00 82° E 03:00:06 31° SSE
Cosmos 1869 Rocket 3.9 02:56:55 10° NNW 03:01:22 65° W 03:03:11 34° SSW
Cosmos 2228 Rocket 3.5 02:58:45 22° SSW 03:01:36 63° W 03:06:08 10° N
Cosmos 2344 4.5 03:00:30 10° WSW 03:07:42 47° NW 03:15:05 10° NNE
NOSS 2-1 (C) 2.9 03:07:58 55° WSW 03:08:34 74° NW 03:11:45 10° NNE
Meteor 2-16 Rocket 4.4 03:02:36 10° N 03:08:48 85° E 03:11:31 36° S
Cosmos 2279 Rocket 4.2 03:07:07 37° SE 03:09:16 53° E 03:15:17 10° NNE
Cosmos 2227 Rocket 4.5 03:06:18 10° WNW 03:09:41 16° W 03:13:03 10° SW
RESURS DK-1 3.9 03:07:11 10° SW 03:10:59 35° WNW 03:14:49 10° N
Cosmos 482 Debris 4.4 03:07:54 10° NW 03:11:06 69° NE 03:11:58 51° E
SL-4 R/B 3.7 03:10:05 10° WNW 03:13:35 23° SW 03:13:57 22° SW
Cosmos 1980 Rocket 4.0 03:11:27 10° WSW 03:16:23 30° WNW 03:21:21 10° N
SL-24 R/B - RUBIN 2 3.7 03:12:50 10° NNW 03:17:14 68° NE 03:18:06 54° ESE
Spot 2 Rocket 3.8 03:16:25 35° SSW 03:18:21 58° W 03:23:21 10° NNW
NOSS 2-1 (D) 3.5 03:18:12 40° WSW 03:19:02 53° NW 03:22:09 10° NNE
ATLAS CENTAUR R/B 4.0 03:20:15 10° N 03:23:16 16° NE 03:25:48 11° ENE
Cosmos 1707 Rocket 3.8 03:22:35 43° SSW 03:23:54 67° W 03:28:18 10° N
ARIANE 5 R/B 2.5 03:23:46 63° SSE 03:24:28 87° E 03:29:00 10° NNW
Cosmos 2322 Rocket 2.1 03:23:14 47° SSE 03:24:39 63° ESE 03:30:11 10° NNE
USA 215 3.6 03:19:04 10° ENE 03:25:09 40° SE 03:25:34 39° SE
BREEZE-M DEB (TANK) 3.0 03:23:00 10° NW 03:25:26 45° NNE 03:26:20 36° ENE
Cosmos 1733 4.3 03:22:59 10° N 03:25:54 32° ENE 03:25:54 32° ENE
Cosmos 2333 Rocket 3.6 03:31:12 23° E 03:31:12 23° E 03:34:44 10° NE
Cosmos 1844 Rocket 3.7 03:26:12 10° N 03:31:14 34° ENE 03:32:53 28° E
Meteor 2-4 Rocket 4.2 03:28:29 25° SSW 03:31:53 60° WNW 03:37:30 10° N
Cosmos 1975 3.6 03:31:55 10° NNW 03:35:46 43° W 03:36:17 41° WSW
Cosmos 44 Rocket 3.1 03:31:08 10° NW 03:35:49 71° WSW 03:36:16 65° SSW
Meteor 1-4 Rocket 3.6 03:33:01 10° N 03:35:33 37° NE 03:35:33 37° NE
Cosmos 2180 Rocket 4.4 03:35:27 48° SSE 03:37:02 66° E 03:43:07 10° NNE
CSL-04 DEB 4.3 03:34:14 10° N 03:38:13 77° WNW 03:38:25 74° WSW
Cosmos 2219 Rocket 3.6 03:49:49 24° E 03:49:49 24° E 03:53:14 10° NE
SAR-Lupe-4 4.2 03:47:23 10° N 03:50:31 52° NW 03:50:31 52° NW
ATLAS 2AS CENTAUR R/B 4.3 03:46:22 10° WSW 03:53:29 37° NW 04:00:25 10° NNE
ERS-1 Rocket 4.2 03:52:27 27° SW 03:53:53 31° W 03:58:22 10° NNW
Cosmos 1733 Rocket 3.6 03:51:27 10° NNW 03:55:45 49° W 03:56:04 48° WSW
Cosmos 1844 4.4 03:50:12 10° NNW 03:55:46 45° ENE 03:57:04 39° E
SJ 16-02 4.3 03:57:53 10° WNW 03:59:28 12° WNW 04:01:04 10° NW
Cosmos 1726 3.6 03:59:56 10° N 04:02:17 31° NE 04:02:17 31° NE
SL-16 R/B 3.1 04:00:33 19° SW 04:04:20 46° WNW 04:09:47 10° NNE
Cosmos 2237 4.5 04:04:12 38° SW 04:06:21 65° WNW 04:12:04 10° NNE
Cosmos 1908 Rocket 3.7 04:03:23 10° N 04:07:12 65° NNE 04:07:12 65° NNE
Geosat 3.8 04:09:12 76° SSW 04:09:26 78° WSW 04:14:29 10° NNW
Meteor 2-10 3.8 04:06:24 10° N 04:11:40 87° E 04:11:51 83° SSE
Cosmos 2242 Rocket 4.1 04:13:47 54° NE 04:13:47 54° NE 04:17:36 10° NNE
ALOS 2 3.9 04:14:10 30° ENE 04:14:10 30° ENE 04:17:45 10° N
Cosmos 1655 Rocket 3.8 04:11:44 10° N 04:18:00 83° E 04:18:59 65° SSE
ATLAS 3B R/B 3.0 04:13:15 10° NW 04:20:36 65° WSW 04:22:21 52° S
COSMOS 2428 3.7 04:23:47 32° E 04:23:47 32° E 04:27:59 10° NE
Cosmos 1937 Rocket 3.3 04:23:08 88° SSE 04:23:11 88° ESE 04:28:29 10° NNE
Cosmos 923 Rocket 4.0 04:18:00 10° NNW 04:23:21 74° WSW 04:23:29 73° WSW
CZ-4C R/B 4.0 04:17:25 10° NNW 04:24:05 38° NE 04:29:38 18° ESE
Terra 3.7 04:23:27 19° WSW 04:24:12 19° W 04:27:35 10° NW
Meteor 1-15 Rocket 4.1 04:21:46 10° N 04:27:28 87° E 04:27:55 77° SSE
ISS -0.7 04:25:54 10° WNW 04:25:58 10° WNW 04:25:58 10° WNW
Cosmos 2360 Rocket 2.5 04:27:32 48° WSW 04:28:52 62° WNW 04:34:29 10° NNE
Cosmos 1867 4.3 04:35:35 40° E 04:35:35 40° E 04:39:39 10° NE
Cosmos 2333 4.0 04:34:43 83° S 04:34:56 88° ESE 04:40:35 10° NNE
Cosmos 2263 Rocket 4.3 04:32:17 10° WNW 04:34:59 14° W 04:35:57 13° WSW
Spot 4 3.9 04:43:39 72° NW 04:43:39 72° NW 04:48:02 10° NNW
Cosmos 2112 Rocket 4.0 04:38:36 10° NNW 04:43:44 75° W 04:43:44 75° W
Okean 1-7 4.1 04:44:37 39° WNW 04:44:37 39° WNW 04:48:28 10° N
Cosmos 1680 Rocket 3.7 04:39:37 10° NNW 04:44:38 62° W 04:44:38 62° W
Cosmos 2266 Rocket 4.2 04:42:44 10° NNW 04:48:48 55° W 04:49:37 51° WSW
Cosmos 2278 Rocket 4.1 04:47:21 10° N 04:51:45 23° NE 04:54:16 17° E
Iridium 4 Rocket 4.0 04:48:30 10° NNW 04:52:48 47° W 04:52:48 47° W
Cosmos 1818 3.5 04:49:25 10° NW 04:54:36 76° WNW 04:54:36 76° WNW
Meteor 2-17 Rocket 4.3 04:51:07 10° N 04:57:20 82° E 04:57:51 75° SE
H-2A R/B 4.4 04:54:51 10° N 04:57:59 46° NNW 04:57:59 46° NNW
Cosmos 1461 4.2 04:55:24 10° NNW 04:58:53 37° NE 04:58:53 37° NE
Meteor 1-22 Rocket 4.3 04:53:42 10° NNW 04:59:41 75° W 05:00:04 72° SW
ATLAS CENTAUR R/B 2.2 04:57:55 10° NNW 05:01:48 57° NW 05:01:48 57° NW
USA 215 3.6 05:01:52 10° NE 05:08:18 61° NW 05:12:52 20° WSW
Cosmos 2322 Rocket 4.3 05:05:02 10° W 05:09:08 21° NW 05:13:17 10° N
ADEOS Rocket 2.7 05:13:15 78° ESE 05:13:32 81° ENE 05:19:29 10° NNW
Cosmos 2322 3.8 05:13:04 64° W 05:13:33 68° WNW 05:19:17 10° NNE
Cosmos 2333 Rocket 2.8 05:13:10 42° W 05:14:14 48° WNW 05:19:44 10° NNE
Cosmos 1844 Rocket 3.7 05:10:06 10° NW 05:14:32 33° W 05:14:32 33° W
ASTEX 1 3.9 05:12:17 10° NNE 05:16:31 52° ENE 05:16:31 52° ENE
Cosmos 1707 4.3 05:20:46 34° NNW 05:20:46 34° NNW 05:23:11 10° N
Cosmos 2221 Rocket 4.3 05:20:53 50° NNE 05:20:53 50° NNE 05:24:14 10° N
ERS-2 4.1 05:22:23 10° N 05:24:27 26° NNW 05:24:27 26° NNW
Cosmos 1378 Rocket 4.5 05:28:59 45° NE 05:28:59 45° NE 05:32:18 10° NNE
SL-08 ROCKET BODY 4.4 05:23:32 10° NNW 05:29:19 63° W 05:29:27 63° W
Cosmos 2219 Rocket 2.9 05:31:30 41° W 05:32:24 45° WNW 05:37:46 10° NNE
Cosmos 2150 Rocket 4.4 05:33:55 54° ENE 05:33:55 54° ENE 05:38:22 10° NNE
Cosmos 494 Rocket 4.2 05:31:48 10° NNW 05:36:47 63° ENE 05:36:47 63° ENE
Cosmos 1048 Rocket 4.0 05:33:05 10° NNW 05:38:01 70° NE 05:38:01 70° NE
S3M 4.0 05:38:12 64° SE 05:38:52 68° E 05:45:12 10° NNE
USA 267 3.3 05:38:54 36° ESE 05:41:51 75° NE 05:48:24 10° NW
Cosmos 1553 Rocket 3.9 05:42:09 67° WSW 05:42:40 71° W 05:48:52 10° N
Cosmos 1125 Rocket 3.6 05:44:18 71° ENE 05:44:18 71° ENE 05:49:03 10° NNE
CZ-2D R/B 4.3 05:41:28 10° ENE 05:44:06 14° E 05:44:50 13° E
Meteor 1-16 Rocket 4.3 05:38:52 10° N 05:44:48 72° E 05:45:16 69° ESE
Cosmos 405 Rocket 4.3 05:48:24 34° N 05:48:24 34° N 05:50:39 10° N
USA 305 4.0 05:49:28 40° NNE 05:49:28 40° NNE 05:52:17 10° NE
USA 229 DEB 4.1 05:41:46 10° NNW 05:49:12 72° NE 05:52:46 36° SE
USA 229 4.1 05:41:52 10° NNW 05:49:18 72° NE 05:52:54 35° SE
Cosmos 1626 4.0 05:55:00 27° NNW 05:55:00 27° NNW 05:56:59 10° N
Cosmos 2151 Rocket 4.4 05:50:11 10° NNW 05:53:24 44° NW 05:53:24 44° NW
PSLV R/B 4.3 05:51:02 10° N 05:54:43 52° NW 05:54:43 52° NW
Cosmos 1437 Rocket 4.2 05:52:31 10° N 05:54:47 34° N 05:54:47 34° N
NOSS 2-2 (E) 4.5 05:51:44 10° NNW 05:57:15 84° ENE 05:58:58 54° SE
NOSS 0 Rocket 3.8 05:56:55 70° SW 05:57:38 81° WNW 06:03:55 10° NNE
Okean 2 Rocket 4.2 05:54:11 10° NNW 05:57:28 39° NW 05:57:28 39° NW
Lacrosse 5 rocket 3.9 06:01:10 12° E 06:01:10 12° E 06:01:34 10° ENE
Cosmos 2237 Rocket 2.0 06:02:09 82° SE 06:02:17 83° ESE 06:08:00 10° NNE
Cosmos 332 Rocket 4.3 06:04:18 50° ENE 06:04:18 50° ENE 06:08:22 10° NNE
COSMOS 2428 3.8 06:05:45 31° W 06:07:07 35° WNW 06:12:17 10° N
Cosmos 1953 3.4 06:04:24 10° N 06:07:09 42° N 06:07:09 42° N
Resurs 1-4 Rocket 3.6 06:05:17 10° NE 06:09:33 24° E 06:10:14 24° ESE
GP-B 3.8 06:07:51 10° NNE 06:11:45 48° ENE 06:11:45 48° ENE
CZ-4C R/B 3.1 06:05:38 10° NW 06:13:06 61° WSW 06:14:45 52° SSW
NOSS 3-1 (A) 4.1 06:08:11 10° NW 06:15:55 69° WSW 06:18:26 49° S
Cosmos 2298 Rocket 4.3 06:16:30 53° WNW 06:16:45 54° WNW 06:21:58 10° N
Cosmos 1943 Rocket 3.8 06:14:11 10° N 06:19:10 30° ENE 06:23:41 12° ESE
Meteor 2-12 Rocket 4.2 06:14:07 10° N 06:20:12 85° W 06:20:58 70° S
ADEOS II 4.1 06:19:32 10° NE 06:22:50 17° E 06:24:27 15° ESE
Cosmos 1745 Rocket 4.1 06:17:00 10° NNW 06:23:04 57° W 06:23:37 55° WSW
Thor Agena Rocket 3.6 06:20:25 10° NNE 06:25:42 66° ESE 06:26:03 64° SE
USA 306 4.1 06:29:56 34° NW 06:30:19 35° NNW 06:34:10 10° NE
NOSS 2-2 (D) 4.4 06:27:47 10° NW 06:33:16 70° WSW 06:34:33 57° S
Okean 1 Rocket 4.1 06:29:46 10° NNW 06:33:02 38° WNW 06:33:02 38° WNW
USA 307 4.0 06:34:07 37° NW 06:34:27 37° NNW 06:38:22 10° NE
Cosmos 2278 Rocket 2.3 06:30:40 10° NNW 06:36:05 56° WSW 06:36:05 56° WSW
Cosmos 371 Rocket 4.4 06:41:23 32° WNW 06:41:45 33° WNW 06:46:08 10° N
Lacrosse 5 1.7 06:43:42 83° SSW 06:43:53 86° SE 06:49:01 10° NE
USA 32 4.3 06:44:30 53° W 06:44:43 53° W 06:49:53 10° N
Cosmos 2084 Rocket 3.9 06:45:29 51° N 06:45:29 51° N 06:48:31 10° NNE
NPP 4.4 06:39:44 10° NNE 06:44:50 42° E 06:46:05 36° SE
ATLAS 5 CENTAUR R/B 3.1 06:38:12 10° NW 06:45:38 43° W 06:45:38 43° W
Cosmos 304 Rocket 4.4 06:49:36 43° WNW 06:49:50 43° WNW 06:54:27 10° N
SL-16 R/B 2.2 06:49:47 57° SSE 06:50:43 68° ESE 06:56:22 10° NNE
Cosmos 1455 3.6 06:49:10 10° NNE 06:52:30 31° ENE 06:52:49 30° E
SME Rocket 2.9 06:58:11 84° W 06:58:11 84° W 07:03:00 10° NNW
Cosmos 1269 Rocket 4.0 06:55:01 10° NNW 07:00:20 82° ENE 07:01:45 50° SSE
Meteor 2-10 Rocket 3.7 06:55:22 10° NNW 07:00:50 55° W 07:01:19 53° WSW
SL-16 R/B 2.9 07:01:09 24° SE 07:04:56 63° ENE 07:11:06 10° N
MOZ.5/SAFIR/RUBIN 5/SL-8 4.1 07:09:27 50° W 07:09:27 50° W 07:13:57 10° NNW
Cosmos 2074 Rocket 4.1 07:03:46 10° N 07:10:05 75° E 07:13:08 33° SSE
Cosmos 1455 Rocket 3.4 07:06:44 10° NNW 07:10:49 50° W 07:10:49 50° W
SAR-Lupe-2 4.1 07:11:54 10° NNE 07:15:21 50° E 07:15:21 50° E
Meteor 1-24 Rocket 3.7 07:14:10 51° SW 07:15:27 69° W 07:20:55 10° N
Cosmos 1536 Rocket 3.9 07:16:40 49° SE 07:17:32 60° E 07:21:52 10° NNE
COSMOS 2455 2.9 07:18:09 44° S 07:20:05 70° ESE 07:26:06 10° NNE
Cosmos 292 Rocket 4.0 07:20:54 47° SSE 07:22:02 61° ESE 07:26:46 10° NNE
CZ-2D R/B 2.1 07:19:21 10° N 07:24:41 72° WNW 07:26:09 47° SW
USA 267 4.1 07:26:11 29° WSW 07:26:11 29° WSW 07:30:48 10° WNW
Cosmos 1975 Rocket 4.2 07:25:12 29° WNW 07:25:20 29° WNW 07:29:15 10° NNW
Cosmos 2184 Rocket 3.9 07:20:08 10° N 07:26:25 86° W 07:29:21 34° S
CRYOSAT 2 4.4 07:25:17 39° SSE 07:27:05 75° E 07:31:58 10° N
Cosmos 1025 Rocket 3.9 07:27:37 33° W 07:27:43 33° WNW 07:31:38 10° NNW
MSX 4.4 07:31:18 10° NNE 07:36:56 52° E 07:40:20 23° SSE
Lacrosse 5 rocket 1.9 07:36:40 39° WNW 07:37:26 45° NW 07:41:20 10° NE
YAOGAN 11 4.0 07:40:01 42° S 07:41:28 80° WSW 07:46:00 10° NNW
OAO 2 Rocket 4.4 07:42:53 26° SSE 07:42:53 26° SSE 07:46:57 10° ESE
Cosmos 1943 3.9 07:41:37 25° SSE 07:44:37 48° ESE 07:50:03 10° NE
Cosmos 1703 3.2 07:45:42 49° S 07:46:42 80° E 07:50:38 10° N
Cosmos 2237 Rocket 4.3 07:43:57 11° W 07:47:04 17° NW 07:50:39 10° N
Resurs 1-4 Rocket 2.8 07:44:33 10° N 07:49:29 41° WNW 07:51:19 30° WSW
UNK 3.7 07:48:51 41° SSW 07:50:13 60° W 07:54:47 10° NNW
EO 1 Del DPAF 2.9 07:48:25 10° NNE 07:51:57 89° W 07:52:35 58° SSW
Helios 1A 2.9 07:51:33 28° SSE 07:53:44 85° ENE 07:57:59 10° NNW
NOSS 3-3 (A) 3.9 07:52:29 31° SSW 07:55:11 68° ESE 08:01:25 10° NE
NOSS 3-3 (C) 3.9 07:52:35 31° SSW 07:55:17 67° ESE 08:01:30 10° NE
Nadezhda 1 Rocket 4.1 07:53:45 30° SSW 07:57:00 66° W 08:03:17 10° N
Cosmos 1544 Rocket 4.4 07:53:38 10° NNW 07:57:30 31° W 07:57:54 30° W
Lacrosse 4 Rocket 4.1 07:57:24 10° SE 07:58:58 12° ESE 08:00:31 10° E
Cosmos 614 Rocket 3.9 07:56:01 10° NNW 08:01:10 65° WSW 08:04:35 21° S
IDEFIX/ARIANE 42P 2.6 07:56:18 10° N 08:01:34 74° WNW 08:04:17 29° SSW
ADEOS II 2.2 07:57:43 10° N 08:02:53 59° WNW 08:05:22 30° SW
Cosmos 1943 Rocket 2.7 07:57:43 10° NW 08:02:59 40° WSW 08:05:08 29° SSW
BREEZE-M DEB (TANK) 4.2 08:02:27 20° SSE 08:03:35 25° ESE 08:08:21 10° ENE
COSMOS 2441 4.5 08:01:13 10° NNE 08:06:06 75° ESE 08:09:05 23° S
Meteor 1-28 Rocket 3.3 08:06:01 40° SSW 08:07:00 54° W 08:10:41 10° NNW
Cosmos 2297 4.0 08:05:03 10° NW 08:10:29 45° WSW 08:13:59 21° SSW
MOS 1 Rocket 3.6 08:10:22 32° SW 08:11:27 38° W 08:15:28 10° NNW
ALOS 4.2 08:07:40 10° NE 08:11:30 25° E 08:15:17 10° SSE
IRS-1D 3.6 08:07:21 10° NNE 08:12:43 83° ESE 08:16:21 21° S
Cosmos 2251 Rocket 3.4 08:09:29 10° NNW 08:14:46 82° WSW 08:20:03 10° SSE
Cosmos 1892 Rocket 4.0 08:13:50 16° S 08:17:16 60° E 08:21:42 10° NNE
Cosmos 1726 Rocket 3.8 08:17:38 10° N 08:22:03 71° E 08:26:24 10° SSE
Cosmos 2366 rocket 4.4 08:20:53 10° N 08:27:01 66° E 08:33:11 10° SSE
Lacrosse 5 3.7 08:23:20 10° W 08:27:26 24° NNW 08:31:32 10° NNE
Cosmos 1455 4.1 08:25:33 10° NW 08:27:34 15° W 08:27:34 15° W
CZ-2C R/B 3.7 08:24:58 10° NNE 08:29:43 38° E 08:34:18 10° SSE
Cosmos 2341 Rocket 4.0 08:24:57 10° N 08:31:22 80° W 08:37:44 10° S
Cosmos 2369 Rocket 2.2 08:27:49 10° NNW 08:33:19 60° WSW 08:38:47 10° S
SL-8 Rocket 4.0 08:27:10 10° N 08:33:32 88° E 08:39:51 10° S
Cosmos 1656 Rocket 3.5 08:29:37 10° NNW 08:35:02 74° WSW 08:40:26 10° SSE
SL-16 R/B 4.0 08:31:39 11° W 08:35:22 20° NW 08:39:25 10° N
Cosmos 1271 Rocket 4.0 08:34:02 10° NW 08:37:05 23° W 08:38:06 20° WSW
Cosmos 2228 3.9 08:39:33 10° NNW 08:43:24 31° W 08:45:54 18° SW
BREEZE-M DEB (TANK) 2.7 08:42:55 15° WSW 08:46:47 64° NNW 08:49:10 10° NE
SL-16 R/B 3.8 08:46:14 15° SW 08:48:58 20° W 08:53:25 10° NW
Cosmos 1420 Rocket 4.2 08:44:09 10° S 08:49:16 70° ESE 08:54:27 10° NNE
SL-24 DEB 4.2 08:52:05 10° S 08:56:49 71° W 09:01:31 10° N
Cosmos 407 Rocket 3.6 08:52:19 10° NNW 08:57:33 60° WSW 09:02:41 10° S
Cosmos 1603 4.2 08:53:54 14° SW 08:58:29 48° WNW 09:03:59 10° NNE
Cosmos 1371 Rocket 4.0 08:55:16 12° SSW 09:00:00 68° WNW 09:05:11 10° NNE
Cosmos 2058 Rocket 3.0 08:55:59 10° N 09:00:22 76° W 09:04:42 10° S
Cosmos 1626 Rocket 4.1 08:57:08 10° S 09:01:27 59° E 09:05:46 10° NNE
Genesis I 3.2 08:57:39 10° NW 09:01:41 69° WSW 09:05:36 10° SSE
MOS 1-B Rocket 3.9 08:58:55 10° S 09:04:28 62° WSW 09:10:09 10° NNW
Cosmos 1140 Rocket 3.7 08:59:53 10° NNW 09:04:56 48° WSW 09:09:55 10° S
SeaSat 1 3.4 09:01:32 10° NE 09:06:16 44° ESE 09:10:57 10° S
COSMOS 2455 4.4 09:01:55 10° W 09:06:34 23° NW 09:11:16 10° N
GPS 2-04 Rocket1 3.3 09:05:26 13° SW 09:07:59 31° S 09:11:10 10° ESE
Helios 1B rocket 3.0 09:09:24 10° N 09:13:12 40° WNW 09:16:59 10° SW
Intercosmos 25 Rocket 4.3 09:12:46 10° N 09:16:17 56° E 09:21:25 10° SSE
Nadezhda 3 Rocket 4.3 09:10:33 10° S 09:16:49 73° E 09:23:04 10° NNE
Lacrosse 5 rocket 3.9 09:15:42 10° NW 09:17:27 12° NNW 09:19:14 10° N
Cosmos 1633 4.3 09:14:18 10° SSE 09:17:30 33° E 09:20:43 10° NNE
Cosmos 2218 Rocket 4.3 09:11:52 10° NNW 09:17:51 49° W 09:23:53 10° SSW
METEOR-M 4.4 09:15:30 10° NNE 09:20:52 75° ESE 09:26:12 10° S
Cosmos 1954 Rocket 4.1 09:16:29 10° NNW 09:21:51 85° WSW 09:27:09 10° SSE
Cosmos 1825 2.1 09:18:10 10° S 09:21:52 85° W 09:25:36 10° N
CZ-2D R/B 3.5 09:18:22 10° NNE 09:22:23 76° ESE 09:26:19 10° S
CZ-3 R/B 4.2 08:42:46 10° W 09:26:22 55° SSW 09:37:08 10° ESE
OAO 2 Rocket 3.8 09:22:22 10° WSW 09:27:03 42° S 09:31:40 10° ESE
Cosmos 1758 Rocket 4.3 09:24:08 10° S 09:28:24 56° E 09:32:40 10° NNE
